Location: Unspecified
(42.3650°N, 71.1030°W)
Time: 16:16:22
(UTC+00:00)

Transit 4A - Pass Details

Date: 01 July 2024
Orbit: 870 x 973 km, 66.8° (Epoch: 17 July)

Event Time Altitude Azimuth Distance (km) Brightness Sun altitude
Rises 02:45:35 0° 257° (WSW) 3,455 11.1 -18.7°
Reaches altitude 10° 02:48:47 10° 274° (W) 2,517 10.6 -19.0°
Maximum altitude 02:52:54 20° 320° (NW) 1,925 10.5 -19.3°
Drops below altitude 10° 02:57:04 10° 6° (N) 2,532 11.0 -19.7°
Sets 03:00:19 0° 23° (NNE) 3,484 11.5 -20.0°
